Regional Weather Roundup
Issued by NWS

Home | Current Version | Previous Version | Text Only | Print | Product List | Glossary On
Versions: 1 2 3 4 5 6 7 8 9 10 11 12 13 14 15 16 17 18 19 20 21 22 23 24 25 26 27 28 29 30 31 32 33 34 35 36 37 38 39 40 41 42 43 44 45 46 47 48 49 50
000
ASUS43 KDTX 250410
RWRMI
MICHIGAN HOURLY REGIONAL WEATHER ROUNDUP
NATIONAL WEATHER SERVICE DETROIT/PONTIAC MI
1200 AM EDT SAT OCT 25 2014

NOTE: "FAIR" INDICATES FEW OR NO CLOUDS BELOW 12,000 FEET WITH NO
SIGNIFICANT WEATHER AND/OR OBSTRUCTION TO VISIBILITY.

MIZ047>049-052>055-059>063-066>070-074>076-081>083-250500-
SOUTHEAST LOWER MICHIGAN

CITY           SKY/WX    TMP DP  RH WIND       PRES   REMARKS
ADRIAN         CLEAR     44  42  93 CALM      29.97F FOG
ALMA           FOG       40  39  98 CALM      29.94S VSB 1/4
ANN ARBOR      FOG       39  36  89 CALM      29.96F VSB 1/2
BAD AXE        PTCLDY    45  45 100 CALM      29.92S FOG
CARO           FOG       42  42  99 CALM      29.92F VSB 1/4
DETROIT CITY   CLOUDY    58  47  66 W6        29.96F
DETROIT        MOCLDY    49  44  83 S5        29.97F
FLINT          PTCLDY    51  45  79 S5        29.95F
GROSSE ILE     MOCLDY    52  46  82 SW3       29.96F
HILLSDALE      PTCLDY    46  46  99 CALM      29.97S FOG
HOWELL         PTCLDY    48  45  90 S6        29.95F

CITY           SKY/WX    TMP DP  RH WIND       PRES   REMARKS
JACKSON        PTCLDY    45  43  93 SW5       29.95F FOG
LAMBERTVILLE   MOCLDY    46  43  87 CALM      29.98S
LANSING        PTCLDY    47  44  90 CALM      29.95F FOG
LAPEER         FAIR      45  43  93 SW3       29.94F
MASON          PTCLDY    45  44  95 S3        29.95F FOG
MONROE         MOCLDY    46  45  93 CALM      29.95F
MT. CLEMENS    CLOUDY    55  47  76 SW5       29.94F
PONTIAC        MOCLDY    50  45  83 CALM      29.95F
PORT HOPE        N/A     50  46  86 CALM      29.90F
PORT HURON     PTCLDY    46  43  87 CALM      29.94F
TRI CITIES     PTCLDY    49  46  90 SW7       29.93F
TROY           MOCLDY    55  46  72 SW5       29.98S
SAGINAW HB     PTCLDY    46  46 100 S5        29.93S FOG
$$
MIZ043>046-050>051-056>058-064>065-071>073-077>080-250500-
SOUTHWEST LOWER MICHIGAN

CITY           SKY/WX    TMP DP  RH WIND       PRES   REMARKS
BATTLE CREEK   FAIR      44  41  89 CALM      29.96F
BENTON HARBOR  MOCLDY    50  48  93 SE5       29.94F
BIG RAPIDS     MOCLDY    47  47 100 CALM      29.92S FOG
COLDWATER        N/A     45  44  98 CALM      29.97S FOG
FREMONT        FOG       48  47  98 CALM      29.92F VSB 1/4
HOLLAND        MOCLDY    50  46  86 CALM      29.93F FOG
GRAND RAPIDS   FAIR      44  43  96 S5        29.93F FOG
IONIA          FAIR      45  45  97 SW5       29.92F FOG
KALAMAZOO      FOG       45  43  93 S3        29.95F VSB 1
LUDINGTON      CLOUDY    49  48  97 S3        29.91F FOG
MARSHALL       FOG       40  40  99 CALM      29.95F VSB 1/2
MOUNT PLEASANT FOG       43  42  97 CALM      29.92F VSB 1
MUSKEGON       MOCLDY    48  45  89 SE3       29.93F FOG
SOUTH HAVEN    MOCLDY    52  49  90 S5        29.94F
$$
MIZ016>042-250500-
NORTHERN LOWER MICHIGAN

CITY           SKY/WX    TMP DP  RH WIND       PRES   REMARKS
ALPENA         PTCLDY    40  39  97 S5        29.86F
BEAVER ISLAND  CLOUDY    51  49  92 SW13      29.83F
BELLAIRE       MOCLDY    48  46  91 S5        29.87F
CADILLAC       CLOUDY    47  46  99 S8        29.89F
CHARLEVOIX     CLOUDY    50  48  93 S6        29.87F
FRANKFORT      MOCLDY    49  46  88 S3        29.88S
GAYLORD        PTCLDY    45  44  97 SW6       29.86F
GRAYLING         N/A     42  42 100 CALM      29.89F FOG
HARBOR SPRINGS PTCLDY    50  47  88 SW5       29.85F
HOUGHTON LAKE  MOCLDY    48  46  93 SW9       29.90F
MANISTEE       CLOUDY    46  45  93 S3        29.90F
OSCODA         PTCLDY    43  43  99 SW3       29.89S FOG
PELLSTON       PTCLDY    47  45  93 CALM      29.84F
TRAVERSE CITY  MOCLDY    50  45  83 VRB5      29.86F
$$
MIZ007>008-015-250500-
EASTERN UPPER MICHIGAN

CITY           SKY/WX    TMP DP  RH WIND       PRES   REMARKS
KINROSS        CLOUDY    50  48  93 SW6       29.81F
MACKINAC ISLAN CLOUDY    50  47  90 SW7       29.83F
NEWBERRY       CLOUDY    47  47  98 SW15G23   29.77F FOG
S. S. MARIE    CLOUDY    50  46  86 S7        29.80F
MUNISING         N/A     53  48  83 S14       29.72F
$$
MIZ004>006-011>014-085-250500-
CENTRAL UPPER MICHIGAN

CITY           SKY/WX    TMP DP  RH WIND       PRES   REMARKS
MANISTIQUE     FOG       49  49 100 S10G17    29.79F VSB 1/2
ESCANABA       CLOUDY    50  46  87 SW9       29.79F
MENOMINEE      CLOUDY    52  48  87 SW10      29.81F
SAWYER-GWINN   MOCLDY    49  47  90 SW12      29.74F
$$
MIZ001>003-009>011-084-250500-
WESTERN UPPER MICHIGAN

CITY           SKY/WX    TMP DP  RH WIND       PRES   REMARKS
IRON MOUNTAIN  CLOUDY    51  48  89 S6        29.77F
HOUGHTON       CLOUDY    58  48  69 W13G25    29.67F
COPPER HARBOR    N/A     57  46  66 W10       29.63F
IRONWOOD       MOCLDY    55  52  88 SW14G21   29.73S
$$

ABBREVIATIONS USED IN REMARKS
   TC - TEMPERATURE IN CELSIUS
  WCI - WIND CHILL INDEX
   HX - HEAT INDEX
  VSB - VISIBILITY




USA.gov is the U.S. government's official web portal to all federal, state and local government web resources and services.